Regional Weather Roundup
Issued by NWS Bismarck, ND

Home | Current Version | Previous Version | Text Only | Print | Product List | Glossary On
Versions: 1 2 3 4 5 6 7 8 9 10 11 12 13 14 15 16 17 18 19 20 21 22 23 24 25 26 27 28 29 30 31 32 33 34 35 36 37 38 39 40 41 42 43 44 45 46 47 48 49 50
000
ASUS43 KBIS 290902
RWRBIS

NWR BROADCAST TEXT
NATIONAL WEATHER SERVICE BISMARCK ND
400 AM CDT WED JUL 29 2015

NOTE: "FAIR" INDICATES FEW OR NO CLOUDS BELOW 12,000 FEET WITH NO
SIGNIFICANT WEATHER AND/OR OBSTRUCTIONS TO VISIBILITY.


CITY           SKY/WX    TMP DP  RH WIND       PRES   REMARKS
WILLISTON      MOCLDY    59  51  75 W20       29.93R
MINOT          CLOUDY    63  50  62 W28G36    29.78R
MINOT AFB      MOCLDY    64  54  70 W26G32    29.76R
BISMARCK       CLEAR     63  47  55 W21G32    29.91R
DICKINSON      PTCLDY    55  44  66 W13       29.98S
GARRISON         N/A     59  52  77 W17G29    29.85R
HETTINGER ARPT CLEAR     51  41  68 NW8       30.07S
JAMESTOWN      CLEAR     62  49  62 W23G39    29.78S
HAZEN          FAIR      59  46  63 W20G25    29.91R
OAKES            N/A     59  52  77 SW15G29   29.87S
STANLEY        FAIR      57  55  94 W15G22    29.87R
$$

CITY           SKY/WX    TMP DP  RH WIND       PRES   REMARKS
GRAND FORKS    CLOUDY    65  53  65 W28G43    29.58R
GRAND FORKS AF NOT AVBL
DEVILS LAKE    CLOUDY    63  50  63 W38G49    29.62R
FARGO          CLOUDY    66  51  58 SW22G29   29.73S
CAVALIER       PTSUNNY   63  55  77 W23G37    29.48R
GRAFTON        CLOUDY    63  57  82 W26G36    29.53R
GWINNER        FAIR      63  52  67 SW18G24   29.86R
LANGDON        CLOUDY    59  55  88 W25G39    29.54R
$$

CITY           SKY/WX    TMP DP  RH WIND       PRES   REMARKS
ABERDEEN       CLEAR     56  49  77 SW9       29.96S
MOBRIDGE       CLEAR     62  46  55 W12       29.99R
BUFFALO          N/A     53  38  56 W14       30.06R
RAPID CITY     CLEAR     56  39  53 SW5       30.20S
GLASGOW        MOCLDY    55  47  74 W6        30.03R
SIDNEY         MOCLDY    63  46  55 W15       29.97R
WOLF POINT     MOCLDY    56  49  77 SW7       30.00S
GLENDIVE       MOCLDY    59  45  58 W14       30.05R
MILES CITY     CLEAR     59  42  53 W10       30.11R
BAKER          PTCLDY    55  39  54 W9        30.10R
$$

CITY           SKY/WX    TMP DP  RH WIND       PRES   REMARKS
BILLINGS       PTCLDY    57  36  45 SW16      30.22S
GREAT FALLS    CLEAR     52  40  63 SW9       30.19S
$$




USA.gov is the U.S. government's official web portal to all federal, state and local government web resources and services.